Regional Weather Roundup
Issued by NWS Cleveland, OH

Home | Current Version | Previous Version | Graphics & Text | Print | Product List | Glossary On
Versions: 1 2 3 4 5 6 7 8 9 10 11 12 13 14 15 16 17 18 19 20 21 22 23 24 25 26 27 28 29 30 31 32 33 34 35 36 37 38 39 40 41 42 43 44 45 46 47 48 49 50
000
ASUS41 KCLE 201702
RWRCLE
OHIO REGIONAL WEATHER ROUNDUP
NATIONAL WEATHER SERVICE CLEVELAND, OH
1200 PM EST TUE FEB 20 2018

NOTE: "FAIR" INDICATES FEW OR NO CLOUDS BELOW 12,000 FEET WITH NO
SIGNIFICANT WEATHER AND/OR OBSTRUCTIONS TO VISIBILITY.

OHZ001>008-015>018-024>027-034-035-043-044-201800-
   NORTHWEST OHIO

CITY           SKY/WX    TMP DP  RH WIND       PRES   REMARKS
DEFIANCE       RAIN      61  59  93 SW14G23   30.04R FOG
FINDLAY        RAIN      66  57  72 SW15      30.07R
TOLEDO EXPRESS LGT RAIN  62  61  96 S13       30.03S
TOLEDO EXEC    LGT RAIN  63  59  87 SW17G24   30.05S
LIMA           CLOUDY    68  59  73 SW18      30.07R
$$

OHZ009>014-019>023-028>033-038-089-201800-
   NORTHEAST OHIO

CITY           SKY/WX    TMP DP  RH WIND       PRES   REMARKS
CLE-HOPKINS    CLOUDY    70  57  63 SW10G23   30.12R
CLE-LAKEFRONT  LGT RAIN  69  56  62 S16G26    30.08R
CUY CO. ARPT   CLOUDY    70  59  68 SW13G22   30.11R
LORAIN-ELYRIA  CLOUDY    67  53  61 W17G26    30.11R
ASHTABULA      CLOUDY    67  57  70 SW18G29   30.12R
AKRON-CANTON   PTSUNNY   68  56  65 SW18G31   30.14S
WOOSTER        FAIR      67  56  67 SW17G31   30.13S
MANSFIELD      CLOUDY    66  57  72 S25G39    30.11S
YOUNGSTOWN     CLOUDY    69  56  62 SW21G28   30.14F
$$

OHZ042-051>053-060>062-070>072-077>081-201800-
  SOUTHWEST OHIO

CITY           SKY/WX    TMP DP  RH WIND       PRES   REMARKS
CINC-COVINGTON PTSUNNY   73  57  57 S24G33    30.14F
CINC-LUNKEN    FAIR      76  57  51 S20       30.14S
HAMILTON       FAIR      73  57  57 S17G26    30.14S
DAYTON         PTSUNNY   70  58  65 SW25G38   30.12R
WRIGHT-PAT AFB FAIR      72  55  55 S24G36    30.12F
DAYTON GENERAL FAIR      72  55  55 SW15G35   30.13R
WILMINGTON     FAIR      70  59  68 SW21G32   30.14F
$$

OHZ036-037-039>041-045>050-054>059-063>069-073>076-082>088-201800-
  CENTRAL AND SOUTHEAST OHIO

CITY           SKY/WX    TMP DP  RH WIND       PRES   REMARKS
COLUMBUS       CLOUDY    71  59  65 S22G29    30.15S
OSU AIRPORT    PTSUNNY   70  59  68 SW21G32   30.13S
BOLTON FIELD   PTSUNNY   70  57  64 SW21G37   30.16S
RICKENBACK AFB FAIR      71  58  64 SW23G33   30.15S
NEWARK         FAIR      71  58  63 S20G25    30.15F
MARION         FAIR      67  57  70 SW20G35   30.11S
LANCASTER      FAIR      74  58  57 SW16G25   30.17S
ZANESVILLE     FAIR      73  55  53 SW14G24   30.18F
NEW PHILLY     NOT AVBL
$$



USA.gov is the U.S. government's official web portal to all federal, state and local government web resources and services.